Left ArrowRight Arrow

Hourly Observations for June 20, 2024

Temp ( °F °C ) Dew Point ( °F °C ) Humidity (%) Winds ( mph kmh ) Pressure ( in mb ) Visibility ( mi km ) Precip ( " mm )
12:54 am 00:54 Clear 70 21.1 63 17.2 78 78 ENE 3 6 30.27 1025 10 16 0.00 0.00
1:54 am 01:54 Clear 67 19.4 63 17.2 87 87 Calm 30.27 1025 10 16 0.00 0.00
2:54 am 02:54 Clear 70 21.1 63 17.2 78 78 S 3 6 30.27 1025 10 16 0.00 0.00
3:54 am 03:54 Mostly Clear 67 19.4 63 17.2 87 87 Calm 30.28 1026 10 16 0.00 0.00
4:54 am 04:54 Cloudy 66 18.9 63 17.2 90 90 Calm 30.29 1026 10 16 0.00 0.00
5:54 am 05:54 Clear 65 18.3 63 17.2 93 93 Calm 30.32 1027 10 16 0.00 0.00
6:54 am 06:54 Sunny 66 18.9 64 17.8 93 93 NNE 3 6 30.32 1027 10 16 0.00 0.00
7:54 am 07:54 Sunny 73 22.8 66 18.9 79 79 NNE 5 7 30.34 1027 10 16 0.00 0.00
8:54 am 08:54 Sunny 76 24.4 66 18.9 71 71 VRB 3 6 30.35 1028 10 16 0.00 0.00
9:54 am 09:54 Sunny 80 26.7 64 17.8 58 58 VRB 6 9 30.35 1028 10 16 0.00 0.00
10:54 am 10:54 Mostly Sunny 81 27.2 65 18.3 58 58 ESE 6 9 30.35 1028 10 16 0.00 0.00
11:54 am 11:54 Mostly Cloudy 82 27.8 64 17.8 55 55 NNE 10 17 30.35 1028 10 16 0.00 0.00
12:54 pm 12:54 Mostly Cloudy 82 27.8 64 17.8 55 55 ENE 7 11 30.34 1027 10 16 0.00 0.00
1:54 pm 13:54 Partly Cloudy 86 30 64 17.8 48 48 VRB 5 7 30.32 1027 10 16 0.00 0.00
2:54 pm 14:54 Sunny 86 30 63 17.2 46 46 ESE 7 11 30.29 1026 10 16 0.00 0.00
3:54 pm 15:54 Sunny 88 31.1 63 17.2 43 43 E 5 7 30.27 1025 10 16 0.00 0.00
4:54 pm 16:54 Sunny 86 30 63 17.2 46 46 ESE 8 13 30.26 1025 10 16 0.00 0.00
5:54 pm 17:54 Sunny 88 31.1 64 17.8 45 45 E 5 7 30.24 1024 10 16 0.00 0.00
6:54 pm 18:54 Mostly Sunny 84 28.9 64 17.8 51 51 Calm 30.24 1024 10 16 0.00 0.00
7:54 pm 19:54 Sunny 82 27.8 64 17.8 55 55 ENE 5 7 30.24 1024 10 16 0.00 0.00
8:54 pm 20:54 Mostly Clear 76 24.4 65 18.3 69 69 Calm 30.24 1024 10 16 0.00 0.00
9:54 pm 21:54 Clear 74 23.3 64 17.8 71 71 Calm 30.25 1024 10 16 0.00 0.00
10:54 pm 22:54 Clear 71 21.7 64 17.8 79 79 Calm 30.26 1025 10 16 0.00 0.00
11:54 pm 23:54 Clear 70 21.1 62 16.7 76 76 Calm 30.25 1025 10 16 0.00 0.00

Powered by Vaisala Xweather